Погода в Араракуаре

Бразилия     21°47′56″S   48°10′37″W
темп.,
°C
ветер,
м/с
пор.,
м/с
влажн.,
%
обл.,
%
осадки,
мм/ч
давл.,
гПа
погр.,
м
26 февраля, пт
пт2600:00+20вюв358893 0.0 1011118
03:00+19в359249 0.0 1010102
06:00+18в22950 0.0 101030
09:00+23в23833 0.3 1012374
12:00+26ссз237219 4.7 10121038
15:00+26сз127025 11.1 1009943
18:00+23св228594 6.3 100987
21:00+20в239088 11.5 101140
27 февраля, сб
сб2700:00+19в379440 1.1 1012184
03:00+18всв4109531 1.1 1011305
06:00+18в38964 0.0 1012252
09:00+22всв46863 0.3 1014459
12:00+26св22756 6.3 1012650
15:00+26в22725 12.6 1010832
18:00+23всв378725 2.6 1009303
21:00+20всв6129039 3.6 1012369
28 февраля, вс
вс2800:00+20св5129597 2.8 1013434
03:00+19всв389590 3.6 1012289
06:00+19всв499553 0.0 1013277
09:00+22всв588355 0.0 1014579
12:00+24св597673 1.2 1014908
15:00+25св577157 1.6 1010850
18:00+24всв25846 2.2 1010181
21:00+20в339035 2.6 101279
1 марта, пн
пн100:00+21в51187100 0.1 1012313
03:00+20всв3584100 0.2 1011119
06:00+19всв3892100 0.0 1012193
09:00+22св5983100 0.0 1013507
12:00+26св576998 0.4 10131054
15:00+27ссв356377 1.6 10101476
18:00+25ссв22781 0.7 100951
21:00+21всв238631 0.8 101235
2 марта, вт
вт200:00+21всв2487100 0.0 1013103
03:00+20всв3793100 0.3 1012174
06:00+19св3596100 2.4 1013155
09:00+23св4786100 3.2 1015360
12:00+26ссв4674100 2.0 1014895
15:00+27ссв446994 3.6 10121116
18:00+24св238141 0.8 101181
21:00+22в238170 0.9 101457